sat.trackr.live / text

‹ back to catalog

STARLINK-35292

NORAD 66322 · 2025-253D

PAYLOAD ACTIVE UNKNOWN

§ Identity

Operator
Country
US
Launch date
2025-11-06
Launch site
AFETR
Launch vehicle
Mass (kg)
RCS (m²)

Purposes: comms

External: N2YO · Heavens-Above · Gunter

§ Orbital elements

Epoch: 2026-05-25T00:58:03.743904Z

Period
94.27 min
Inclination
42.9982°
Eccentricity
0.0001013
Mean motion
15.27591732 rev/d
Perigee alt
482.3 km
Apogee alt
483.7 km
Semi-major
6,861.2 km
B*
5.4571e-4
RAAN
141.1222°
Arg perigee
286.7793°
Mean anomaly
73.2948°
Rev number
3,192

§ Raw data

STARLINK-352921 66322U 25253D   26145.04032111  .00014790  00000+0  54571-3 0  99912 66322  42.9982 141.1222 0001013 286.7793  73.2948 15.27591732 31925

JSON: /api/v1/satellites/66322 · /tle

For live sub-satellite position, see the globe view (requires WebGL).

§ Visibility from observer

Set your observer location to see the next 7 days of passes ≥ 10°. The values pass through the URL so the page stays shareable.

No JS? Fill the form by hand. The geolocation button needs JavaScript.